User: anonymous   Login
Location: York
(31.8935°S, 116.7682°E)
Time: 16:43:59
(UTC+08:00)
Language:

Explorer 11/Cluster Stage 4 - Orbit

View from above orbital plane
View from above orbital plane
View from above satellite
View from above satellite

Ground track
Ground track

The orbit data is extracted from the following two-line orbital elements,

1 00107U 61013A   22267.86629753  .00002178  00000-0  27240-3 0  9990
2 00107  28.7855 173.8325 0540930 131.2346 233.6140 14.10446276 83347
Epoch (UTC): 24 September 2022 20:47:28
Eccentricity: 0.0540930
inclination: 28.7855°
perigee height: 466 km
apogee height: 1249 km
right ascension of ascending node: 173.8325°
argument of perigee: 131.2346°
revolutions per day: 14.10446276
mean anomaly at epoch: 233.6140°
orbit number at epoch: 8334

The dashed part of the orbit path shows where the satellite is in the earth's shadow,  

DLR